| time (UTC) | temp C | wind direction | speed KPH | gust KPH | rain 1hr cm | rain 24hr cm | rain mn cm | humidity % | barometer mb |
| 20260506194528 | 8 | 0 | 0.0 | 4.8 | 0.00 | 0.79 | 0.46 | 82 | 1013.0 |
| 20260506194017 | 8 | 0 | 0.0 | 4.8 | 0.00 | 0.79 | 0.46 | 81 | 1013.0 |
| 20260506193515 | 9 | 353 | 0.0 | 4.8 | 0.00 | 0.79 | 0.46 | 81 | 1012.9 |
| 20260506193031 | 9 | 353 | 0.0 | 6.4 | 0.00 | 0.79 | 0.46 | 81 | 1012.8 |
| 20260506192515 | 9 | 356 | 0.0 | 6.4 | 0.00 | 0.79 | 0.46 | 81 | 1012.7 |
| 20260506192017 | 10 | 0 | 0.0 | 3.2 | 0.00 | 0.79 | 0.46 | 80 | 1012.6 |
| 20260506191533 | 10 | 0 | 0.0 | 3.2 | 0.00 | 0.79 | 0.46 | 79 | 1012.5 |
| 20260506191013 | 10 | 0 | 0.0 | 3.2 | 0.00 | 0.79 | 0.46 | 79 | 1012.5 |
| 20260506190516 | 10 | 0 | 0.0 | 4.8 | 0.00 | 0.79 | 0.46 | 78 | 1012.4 |
| 20260506190031 | 10 | 0 | 0.0 | 11.3 | 0.00 | 0.79 | 0.46 | 77 | 1012.4 |
| 20260506185515 | 10 | 6 | 0.0 | 11.3 | 0.00 | 0.79 | 0.46 | 77 | 1012.3 |
| 20260506185017 | 10 | 43 | 1.6 | 8.0 | 0.00 | 0.79 | 0.46 | 77 | 1012.3 |
| 20260506184533 | 10 | 29 | 1.6 | 6.4 | 0.00 | 0.79 | 0.46 | 77 | 1012.2 |
| 20260506184015 | 10 | 0 | 0.0 | 6.4 | 0.00 | 0.79 | 0.46 | 77 | 1012.1 |
| 20260506183513 | 10 | 0 | 1.6 | 6.4 | 0.00 | 0.79 | 0.46 | 76 | 1012.2 |
| 20260506183032 | 10 | 23 | 1.6 | 6.4 | 0.00 | 0.79 | 0.46 | 76 | 1012.1 |
| 20260506182515 | 11 | 58 | 1.6 | 8.0 | 0.00 | 0.79 | 0.46 | 76 | 1012.0 |
| 20260506182014 | 11 | 78 | 1.6 | 9.7 | 0.00 | 0.79 | 0.46 | 76 | 1012.0 |
| 20260506181532 | 11 | 48 | 1.6 | 9.7 | 0.00 | 0.79 | 0.46 | 76 | 1011.9 |
| 20260506181016 | 11 | 71 | 3.2 | 9.7 | 0.00 | 0.79 | 0.46 | 77 | 1011.8 |
| 20260506180516 | 11 | 0 | 1.6 | 8.0 | 0.00 | 0.79 | 0.46 | 76 | 1011.7 |
| 20260506180038 | 11 | 38 | 1.6 | 12.9 | 0.00 | 0.79 | 0.46 | 76 | 1011.6 |
| 20260506175516 | 11 | 67 | 1.6 | 12.9 | 0.00 | 0.79 | 0.46 | 77 | 1011.5 |
| 20260506175017 | 11 | 0 | 1.6 | 9.7 | 0.00 | 0.79 | 0.46 | 78 | 1011.5 |
| 20260506174533 | 12 | 33 | 3.2 | 8.0 | 0.00 | 0.79 | 0.46 | 78 | 1011.4 |
| 20260506174013 | 12 | 0 | 0.0 | 4.8 | 0.00 | 0.79 | 0.46 | 78 | 1011.4 |
| 20260506173515 | 12 | 18 | 0.0 | 8.0 | 0.00 | 0.79 | 0.46 | 78 | 1011.3 |
| 20260506173031 | 12 | 0 | 1.6 | 9.7 | 0.00 | 0.79 | 0.46 | 77 | 1011.3 |
| 20260506172515 | 12 | 0 | 1.6 | 11.3 | 0.00 | 0.79 | 0.46 | 77 | 1011.2 |
| 20260506172013 | 12 | 40 | 1.6 | 11.3 | 0.00 | 0.79 | 0.46 | 77 | 1011.2 |
| 20260506171539 | 12 | 66 | 1.6 | 11.3 | 0.00 | 0.79 | 0.46 | 77 | 1011.2 |
| 20260506171015 | 12 | 0 | 1.6 | 11.3 | 0.00 | 0.79 | 0.46 | 78 | 1011.2 |
| 20260506170517 | 12 | 58 | 1.6 | 11.3 | 0.00 | 0.79 | 0.46 | 79 | 1011.1 |
| 20260506170027 | 12 | 0 | 0.0 | 4.8 | 0.00 | 0.79 | 0.46 | 79 | 1011.1 |
| 20260506165516 | 12 | 0 | 0.0 | 4.8 | 0.00 | 0.79 | 0.46 | 79 | 1011.0 |
| 20260506165015 | 12 | 326 | 0.0 | 8.0 | 0.00 | 0.79 | 0.46 | 79 | 1011.0 |
| 20260506164531 | 12 | 325 | 1.6 | 8.0 | 0.00 | 0.79 | 0.46 | 79 | 1010.9 |
| 20260506164013 | 12 | 325 | 3.2 | 6.4 | 0.00 | 0.79 | 0.46 | 78 | 1010.9 |
| 20260506163517 | 12 | 316 | 3.2 | 9.7 | 0.00 | 0.79 | 0.46 | 79 | 1010.9 |
| 20260506163035 | 12 | 335 | 3.2 | 9.7 | 0.00 | 0.79 | 0.46 | 78 | 1010.9 |
| 20260506162513 | 12 | 339 | 3.2 | 8.0 | 0.00 | 0.79 | 0.46 | 78 | 1010.8 |
| 20260506162014 | 12 | 344 | 1.6 | 8.0 | 0.00 | 0.79 | 0.46 | 78 | 1010.8 |
| 20260506161532 | 12 | 0 | 1.6 | 9.7 | 0.00 | 0.79 | 0.46 | 79 | 1010.8 |
| 20260506161013 | 12 | 0 | 1.6 | 9.7 | 0.00 | 0.79 | 0.46 | 77 | 1010.8 |
| 20260506160515 | 12 | 352 | 0.0 | 11.3 | 0.00 | 0.79 | 0.46 | 78 | 1010.9 |
| 20260506160032 | 12 | 0 | 0.0 | 11.3 | 0.00 | 0.79 | 0.46 | 77 | 1010.8 |
| 20260506155512 | 12 | 319 | 4.8 | 12.9 | 0.00 | 0.79 | 0.46 | 78 | 1010.9 |
| 20260506155016 | 12 | 341 | 1.6 | 12.9 | 0.00 | 0.79 | 0.46 | 78 | 1010.8 |
| 20260506154533 | 12 | 349 | 3.2 | 14.5 | 0.00 | 0.79 | 0.46 | 78 | 1010.8 |
| 20260506154012 | 12 | 331 | 6.4 | 14.5 | 0.00 | 0.79 | 0.46 | 78 | 1010.7 |
| 20260506153513 | 12 | 356 | 3.2 | 11.3 | 0.00 | 0.79 | 0.46 | 79 | 1010.6 |
| 20260506153031 | 12 | 313 | 4.8 | 11.3 | 0.00 | 0.79 | 0.46 | 79 | 1010.6 |
| 20260506152520 | 12 | 334 | 3.2 | 11.3 | 0.00 | 0.79 | 0.46 | 82 | 1010.7 |
| 20260506152014 | 12 | 0 | 1.6 | 11.3 | 0.00 | 0.79 | 0.46 | 82 | 1010.6 |
| 20260506151533 | 12 | 291 | 1.6 | 11.3 | 0.00 | 0.79 | 0.46 | 82 | 1010.6 |
| 20260506151014 | 12 | 0 | 0.0 | 0.0 | 0.00 | 0.79 | 0.46 | 84 | 1010.7 |
| 20260506150515 | 12 | 0 | 0.0 | 0.0 | 0.00 | 0.79 | 0.46 | 84 | 1010.6 |
| 20260506150032 | 11 | 0 | 0.0 | 0.0 | 0.00 | 0.79 | 0.46 | 84 | 1010.6 |
| 20260506145515 | 11 | 0 | 0.0 | 0.0 | 0.00 | 0.79 | 0.46 | 84 | 1010.6 |
| 20260506145012 | 11 | 0 | 0.0 | 0.0 | 0.00 | 0.79 | 0.46 | 84 | 1010.7 |
| 20260506144530 | 11 | 0 | 0.0 | 0.0 | 0.00 | 0.79 | 0.46 | 84 | 1010.7 |
| 20260506144013 | 11 | 0 | 0.0 | 0.0 | 0.00 | 0.79 | 0.46 | 85 | 1010.6 |
| 20260506143514 | 11 | 0 | 0.0 | 0.0 | 0.00 | 0.79 | 0.46 | 86 | 1010.7 |
| 20260506143028 | 11 | 0 | 0.0 | 0.0 | 0.00 | 0.79 | 0.46 | 86 | 1010.8 |
| 20260506142515 | 11 | 0 | 0.0 | 0.0 | 0.00 | 0.79 | 0.46 | 85 | 1010.8 |
| 20260506142015 | 11 | 0 | 0.0 | 0.0 | 0.00 | 0.79 | 0.46 | 85 | 1010.8 |
| 20260506141530 | 11 | 0 | 0.0 | 3.2 | 0.00 | 0.79 | 0.46 | 85 | 1010.7 |
| 20260506141014 | 11 | 0 | 0.0 | 4.8 | 0.00 | 0.79 | 0.46 | 86 | 1010.8 |
| 20260506140513 | 11 | 0 | 0.0 | 9.7 | 0.00 | 0.79 | 0.46 | 85 | 1010.8 |
| 20260506140034 | 11 | 333 | 1.6 | 9.7 | 0.00 | 0.79 | 0.46 | 85 | 1010.7 |
| 20260506135513 | 11 | 333 | 3.2 | 9.7 | 0.00 | 0.79 | 0.46 | 85 | 1010.9 |
| 20260506135013 | 11 | 305 | 1.6 | 6.4 | 0.00 | 0.79 | 0.46 | 85 | 1010.8 |
| 20260506134533 | 11 | 299 | 1.6 | 11.3 | 0.00 | 0.79 | 0.46 | 86 | 1010.8 |
| 20260506134014 | 11 | 293 | 3.2 | 11.3 | 0.00 | 0.79 | 0.46 | 86 | 1010.8 |
| 20260506133515 | 11 | 300 | 3.2 | 9.7 | 0.00 | 0.79 | 0.46 | 87 | 1010.8 |
| 20260506133031 | 11 | 309 | 3.2 | 9.7 | 0.00 | 0.79 | 0.46 | 89 | 1010.8 |
| 20260506132516 | 11 | 309 | 0.0 | 6.4 | 0.00 | 0.79 | 0.46 | 89 | 1010.7 |
| 20260506132012 | 11 | 308 | 3.2 | 6.4 | 0.00 | 0.79 | 0.46 | 89 | 1010.9 |
| 20260506131534 | 11 | 308 | 3.2 | 6.4 | 0.00 | 0.79 | 0.46 | 90 | 1010.8 |
| 20260506131016 | 11 | 0 | 0.0 | 8.0 | 0.00 | 0.79 | 0.46 | 91 | 1010.8 |
| 20260506130517 | 11 | 0 | 1.6 | 8.0 | 0.00 | 0.79 | 0.46 | 91 | 1010.8 |
| 20260506130030 | 11 | 310 | 1.6 | 8.0 | 0.00 | 0.79 | 0.46 | 92 | 1010.7 |
| 20260506125515 | 11 | 318 | 3.2 | 8.0 | 0.00 | 0.79 | 0.46 | 92 | 1010.7 |
| 20260506125016 | 11 | 280 | 0.0 | 8.0 | 0.00 | 0.79 | 0.46 | 92 | 1010.6 |
| 20260506124533 | 11 | 264 | 3.2 | 8.0 | 0.00 | 0.79 | 0.46 | 92 | 1010.6 |
| 20260506124013 | 11 | 314 | 3.2 | 9.7 | 0.00 | 0.79 | 0.46 | 92 | 1010.6 |
| 20260506123515 | 11 | 289 | 1.6 | 9.7 | 0.00 | 0.79 | 0.46 | 93 | 1010.5 |
| 20260506123029 | 10 | 320 | 3.2 | 6.4 | 0.00 | 0.79 | 0.46 | 93 | 1010.6 |
| 20260506122518 | 10 | 325 | 1.6 | 8.0 | 0.00 | 0.79 | 0.46 | 93 | 1010.4 |
| 20260506122018 | 10 | 326 | 1.6 | 8.0 | 0.00 | 0.79 | 0.46 | 93 | 1010.6 |
| 20260506121534 | 10 | 328 | 1.6 | 8.0 | 0.00 | 0.79 | 0.46 | 94 | 1010.6 |
| 20260506121017 | 10 | 0 | 1.6 | 8.0 | 0.00 | 0.79 | 0.46 | 94 | 1010.5 |
| 20260506120517 | 10 | 0 | 0.0 | 9.7 | 0.00 | 0.79 | 0.46 | 94 | 1010.6 |
| 20260506120039 | 10 | 339 | 3.2 | 9.7 | 0.00 | 0.79 | 0.46 | 94 | 1010.4 |
| 20260506115516 | 10 | 335 | 1.6 | 14.5 | 0.00 | 0.79 | 0.46 | 95 | 1010.5 |
| 20260506115017 | 10 | 0 | 3.2 | 14.5 | 0.00 | 0.79 | 0.46 | 95 | 1010.4 |
| 20260506114538 | 10 | 326 | 4.8 | 14.5 | 0.00 | 0.79 | 0.46 | 95 | 1010.4 |
| 20260506114015 | 10 | 0 | 1.6 | 8.0 | 0.00 | 0.79 | 0.46 | 95 | 1010.4 |
| 20260506113519 | 10 | 0 | 0.0 | 9.7 | 0.00 | 0.79 | 0.46 | 95 | 1010.5 |
| 20260506113032 | 10 | 331 | 1.6 | 9.7 | 0.00 | 0.79 | 0.46 | 95 | 1010.4 |
| 20260506112519 | 10 | 326 | 0.0 | 11.3 | 0.00 | 0.79 | 0.46 | 95 | 1010.5 |
| 20260506112018 | 10 | 336 | 1.6 | 12.9 | 0.00 | 0.79 | 0.46 | 95 | 1010.4 |
| 20260506111529 | 10 | 0 | 3.2 | 12.9 | 0.00 | 0.79 | 0.46 | 95 | 1010.5 |
| 20260506111017 | 10 | 345 | 3.2 | 12.9 | 0.00 | 0.79 | 0.46 | 95 | 1010.5 |
| 20260506110519 | 10 | 52 | 0.0 | 6.4 | 0.00 | 0.79 | 0.46 | 96 | 1010.4 |
| 20260506110034 | 10 | 0 | 0.0 | 8.0 | 0.00 | 0.79 | 0.46 | 96 | 1010.4 |
| 20260506105519 | 10 | 0 | 0.0 | 8.0 | 0.00 | 0.81 | 0.46 | 96 | 1010.4 |
| 20260506105017 | 10 | 0 | 0.0 | 6.4 | 0.00 | 0.81 | 0.46 | 96 | 1010.6 |
| 20260506104534 | 10 | 0 | 0.0 | 1.6 | 0.00 | 0.81 | 0.46 | 95 | 1010.6 |
| 20260506104016 | 10 | 0 | 0.0 | 4.8 | 0.00 | 0.81 | 0.46 | 96 | 1010.7 |
| 20260506103517 | 9 | 0 | 0.0 | 4.8 | 0.00 | 0.81 | 0.46 | 96 | 1010.7 |
| 20260506103033 | 9 | 0 | 0.0 | 4.8 | 0.00 | 0.81 | 0.46 | 96 | 1010.6 |
| 20260506102518 | 9 | 0 | 0.0 | 6.4 | 0.00 | 0.81 | 0.46 | 95 | 1010.6 |
| 20260506102016 | 9 | 349 | 0.0 | 8.0 | 0.00 | 0.81 | 0.46 | 95 | 1010.6 |
| 20260506101530 | 9 | 0 | 1.6 | 8.0 | 0.00 | 0.81 | 0.46 | 95 | 1010.6 |
| 20260506101015 | 9 | 341 | 1.6 | 9.7 | 0.00 | 0.81 | 0.46 | 96 | 1010.6 |
| 20260506100515 | 8 | 0 | 0.0 | 9.7 | 0.00 | 0.81 | 0.46 | 96 | 1010.5 |
| 20260506100029 | 8 | 0 | 0.0 | 8.0 | 0.00 | 0.81 | 0.46 | 95 | 1010.4 |
| 20260506095516 | 8 | 0 | 0.0 | 8.0 | 0.00 | 0.81 | 0.46 | 95 | 1010.4 |
| 20260506095016 | 8 | 0 | 0.0 | 11.3 | 0.00 | 0.81 | 0.46 | 95 | 1010.3 |
| 20260506094529 | 8 | 0 | 1.6 | 11.3 | 0.00 | 0.81 | 0.46 | 95 | 1010.4 |
| 20260506094015 | 8 | 0 | 1.6 | 11.3 | 0.00 | 0.81 | 0.46 | 95 | 1010.3 |
| 20260506093520 | 8 | 0 | 1.6 | 11.3 | 0.00 | 0.81 | 0.46 | 95 | 1010.3 |
| 20260506093032 | 8 | 0 | 1.6 | 9.7 | 0.00 | 0.81 | 0.46 | 95 | 1010.3 |
| 20260506092520 | 8 | 345 | 0.0 | 11.3 | 0.00 | 0.81 | 0.46 | 95 | 1010.2 |
| 20260506092016 | 8 | 0 | 3.2 | 11.3 | 0.00 | 0.81 | 0.46 | 95 | 1010.2 |
| 20260506091531 | 8 | 331 | 0.0 | 9.7 | 0.00 | 0.81 | 0.46 | 95 | 1010.1 |
| 20260506091016 | 8 | 0 | 0.0 | 9.7 | 0.00 | 0.81 | 0.46 | 95 | 1010.2 |
| 20260506090515 | 8 | 0 | 0.0 | 6.4 | 0.00 | 0.81 | 0.46 | 95 | 1010.0 |
| 20260506090029 | 8 | 0 | 0.0 | 12.9 | 0.00 | 0.81 | 0.46 | 95 | 1010.1 |
| 20260506085515 | 8 | 0 | 1.6 | 14.5 | 0.00 | 0.81 | 0.46 | 95 | 1010.0 |
| 20260506085016 | 8 | 0 | 1.6 | 14.5 | 0.03 | 0.81 | 0.46 | 95 | 1009.9 |
| 20260506084539 | 8 | 0 | 3.2 | 14.5 | 0.03 | 0.81 | 0.46 | 95 | 1009.8 |
| 20260506084015 | 8 | 0 | 0.0 | 19.3 | 0.03 | 0.81 | 0.46 | 95 | 1009.9 |
| 20260506083516 | 8 | 48 | 4.8 | 19.3 | 0.03 | 0.81 | 0.46 | 95 | 1009.8 |
| 20260506083030 | 8 | 0 | 1.6 | 12.9 | 0.03 | 0.81 | 0.46 | 95 | 1009.8 |
| 20260506082515 | 8 | 0 | 3.2 | 14.5 | 0.03 | 0.81 | 0.46 | 95 | 1009.7 |
| 20260506082018 | 8 | 348 | 1.6 | 16.1 | 0.03 | 0.81 | 0.46 | 95 | 1009.7 |
| 20260506081533 | 8 | 2 | 3.2 | 16.1 | 0.03 | 0.81 | 0.46 | 95 | 1009.6 |
| 20260506081015 | 8 | 324 | 4.8 | 16.1 | 0.03 | 0.81 | 0.46 | 95 | 1009.6 |
| 20260506080516 | 8 | 15 | 3.2 | 16.1 | 0.03 | 0.81 | 0.46 | 95 | 1009.6 |
| 20260506073517 | 7 | 1 | 3.2 | 14.5 | 0.00 | 0.79 | 0.43 | 95 | 1009.5 |
| 20260506073029 | 7 | 62 | 1.6 | 12.9 | 0.00 | 0.79 | 0.43 | 95 | 1009.4 |
| 20260506072514 | 7 | 18 | 3.2 | 11.3 | 0.00 | 0.79 | 0.43 | 95 | 1009.5 |
| 20260506072016 | 7 | 348 | 1.6 | 9.7 | 0.03 | 0.79 | 0.43 | 95 | 1009.4 |
| 20260506071532 | 7 | 0 | 1.6 | 11.3 | 0.03 | 0.79 | 0.43 | 95 | 1009.4 |
| 20260506071017 | 7 | 322 | 1.6 | 14.5 | 0.03 | 0.79 | 0.43 | 95 | 1009.5 |
| 20260506070517 | 7 | 0 | 4.8 | 14.5 | 0.03 | 0.79 | 0.43 | 95 | 1009.4 |
| 20260506062515 | 7 | 0 | 0.0 | 9.7 | 0.03 | 0.79 | 0.43 | 95 | 1009.2 |
| 20260506062016 | 7 | 335 | 1.6 | 9.7 | 0.00 | 0.76 | 0.41 | 95 | 1009.1 |
| 20260506061538 | 7 | 335 | 0.0 | 11.3 | 0.00 | 0.76 | 0.41 | 95 | 1009.2 |
| 20260506061019 | 7 | 334 | 1.6 | 11.3 | 0.00 | 0.76 | 0.41 | 95 | 1009.2 |
| 20260506060517 | 7 | 349 | 3.2 | 11.3 | 0.03 | 0.76 | 0.41 | 95 | 1009.2 |
| 20260506051014 | 7 | 347 | 3.2 | 14.5 | 0.10 | 0.76 | 0.41 | 95 | 1009.2 |
| 20260506050514 | 7 | 339 | 3.2 | 14.5 | 0.08 | 0.74 | 0.38 | 95 | 1009.1 |
| 20260506045017 | 7 | 0 | 1.6 | 8.0 | 0.08 | 0.74 | 0.38 | 95 | 1009.1 |
| 20260506044537 | 7 | 0 | 1.6 | 9.7 | 0.05 | 0.71 | 0.36 | 95 | 1009.1 |
| 20260506044016 | 7 | 337 | 1.6 | 9.7 | 0.05 | 0.71 | 0.36 | 95 | 1009.0 |
| 20260506043516 | 7 | 0 | 3.2 | 11.3 | 0.03 | 0.69 | 0.33 | 95 | 1009.1 |
| 20260506043031 | 7 | 0 | 3.2 | 11.3 | 0.03 | 0.69 | 0.33 | 95 | 1008.9 |
| 20260506042519 | 7 | 330 | 1.6 | 8.0 | 0.05 | 0.69 | 0.33 | 95 | 1009.0 |
| 20260506042015 | 7 | 326 | 1.6 | 8.0 | 0.05 | 0.69 | 0.33 | 95 | 1009.1 |
| 20260506041533 | 7 | 329 | 1.6 | 11.3 | 0.03 | 0.66 | 0.30 | 95 | 1009.1 |
| 20260506041016 | 7 | 332 | 3.2 | 11.3 | 0.03 | 0.66 | 0.30 | 95 | 1009.0 |
| 20260506040518 | 7 | 0 | 1.6 | 9.7 | 0.03 | 0.66 | 0.30 | 95 | 1009.0 |
| 20260506040033 | 7 | 337 | 0.0 | 9.7 | 0.03 | 0.66 | 0.30 | 95 | 1009.0 |
| 20260506035517 | 7 | 0 | 1.6 | 11.3 | 0.03 | 0.66 | 0.30 | 95 | 1009.1 |
| 20260506035016 | 7 | 354 | 1.6 | 11.3 | 0.03 | 0.66 | 0.30 | 95 | 1009.0 |
| 20260506034532 | 7 | 0 | 0.0 | 9.7 | 0.03 | 0.66 | 0.30 | 95 | 1009.1 |
| 20260506034015 | 7 | 0 | 0.0 | 11.3 | 0.03 | 0.66 | 0.30 | 95 | 1009.1 |
| 20260506033517 | 7 | 0 | 0.0 | 12.9 | 0.03 | 0.66 | 0.30 | 95 | 1009.2 |
| 20260506033034 | 7 | 0 | 3.2 | 12.9 | 0.03 | 0.66 | 0.30 | 95 | 1009.1 |
| 20260506032515 | 7 | 341 | 1.6 | 14.5 | 0.00 | 0.64 | 0.28 | 95 | 1009.1 |
| 20260506032017 | 7 | 346 | 4.8 | 14.5 | 0.00 | 0.64 | 0.28 | 95 | 1009.1 |
| 20260506031536 | 7 | 0 | 3.2 | 12.9 | 0.00 | 0.64 | 0.28 | 95 | 1009.2 |
| 20260506031016 | 7 | 328 | 3.2 | 12.9 | 0.00 | 0.64 | 0.28 | 95 | 1009.1 |
| 20260506030514 | 7 | 328 | 0.0 | 8.0 | 0.00 | 0.64 | 0.28 | 95 | 1009.1 |
| 20260506030050 | 7 | 333 | 0.0 | 8.0 | 0.03 | 0.64 | 0.28 | 95 | 1009.2 |
| 20260506025514 | 7 | 333 | 1.6 | 12.9 | 0.03 | 0.64 | 0.28 | 95 | 1009.3 |
| 20260506025017 | 7 | 336 | 3.2 | 12.9 | 0.03 | 0.64 | 0.28 | 95 | 1009.2 |
| 20260506024542 | 7 | 0 | 1.6 | 8.0 | 0.03 | 0.64 | 0.28 | 95 | 1009.3 |
| 20260506024015 | 7 | 326 | 1.6 | 9.7 | 0.03 | 0.64 | 0.28 | 95 | 1009.4 |
| 20260506023515 | 7 | 0 | 0.0 | 11.3 | 0.03 | 0.64 | 0.28 | 95 | 1009.3 |
| 20260506023035 | 7 | 343 | 1.6 | 11.3 | 0.03 | 0.64 | 0.28 | 95 | 1009.4 |
| 20260506022517 | 7 | 0 | 0.0 | 12.9 | 0.03 | 0.64 | 0.28 | 95 | 1009.4 |
| 20260506022017 | 7 | 0 | 0.0 | 12.9 | 0.03 | 0.64 | 0.28 | 95 | 1009.4 |
| 20260506021533 | 7 | 326 | 1.6 | 11.3 | 0.05 | 0.64 | 0.28 | 95 | 1009.4 |
| 20260506021017 | 7 | 332 | 0.0 | 9.7 | 0.05 | 0.64 | 0.28 | 95 | 1009.4 |
| 20260506020517 | 7 | 0 | 1.6 | 12.9 | 0.05 | 0.64 | 0.28 | 95 | 1009.3 |
| 20260506020032 | 7 | 0 | 0.0 | 12.9 | 0.03 | 0.61 | 0.25 | 95 | 1009.3 |
| 20260506015517 | 7 | 328 | 3.2 | 9.7 | 0.03 | 0.61 | 0.25 | 95 | 1009.3 |
| 20260506015015 | 7 | 353 | 0.0 | 9.7 | 0.03 | 0.61 | 0.25 | 95 | 1009.4 |
| 20260506014534 | 7 | 0 | 0.0 | 9.7 | 0.05 | 0.61 | 0.25 | 95 | 1009.3 |
| 20260506014015 | 8 | 0 | 1.6 | 9.7 | 0.05 | 0.61 | 0.25 | 95 | 1009.4 |
| 20260506013515 | 8 | 0 | 0.0 | 4.8 | 0.05 | 0.61 | 0.25 | 95 | 1009.4 |
| 20260506013031 | 8 | 0 | 0.0 | 11.3 | 0.05 | 0.61 | 0.25 | 95 | 1009.4 |
| 20260506012516 | 8 | 322 | 0.0 | 11.3 | 0.08 | 0.61 | 0.25 | 95 | 1009.4 |
| 20260506012015 | 8 | 0 | 0.0 | 14.5 | 0.08 | 0.61 | 0.25 | 95 | 1009.4 |
| 20260506011536 | 8 | 0 | 0.0 | 14.5 | 0.05 | 0.58 | 0.23 | 95 | 1009.5 |
| 20260506011020 | 8 | 342 | 1.6 | 11.3 | 0.05 | 0.58 | 0.23 | 95 | 1009.4 |
| 20260506010515 | 8 | 336 | 1.6 | 9.7 | 0.08 | 0.58 | 0.23 | 95 | 1009.4 |
| 20260506010036 | 8 | 0 | 1.6 | 8.0 | 0.08 | 0.58 | 0.23 | 95 | 1009.5 |
| 20260506005515 | 8 | 26 | 0.0 | 8.0 | 0.08 | 0.58 | 0.23 | 95 | 1009.5 |
| 20260506005015 | 8 | 0 | 0.0 | 11.3 | 0.08 | 0.58 | 0.23 | 95 | 1009.5 |
| 20260506004544 | 8 | 4 | 1.6 | 11.3 | 0.05 | 0.56 | 0.20 | 95 | 1009.5 |
| 20260506004015 | 8 | 344 | 1.6 | 11.3 | 0.08 | 0.56 | 0.20 | 95 | 1009.5 |
| 20260506003515 | 8 | 0 | 0.0 | 11.3 | 0.08 | 0.56 | 0.20 | 95 | 1009.5 |
| 20260506003038 | 8 | 25 | 0.0 | 8.0 | 0.08 | 0.56 | 0.20 | 95 | 1009.6 |
| 20260506002516 | 8 | 0 | 0.0 | 12.9 | 0.05 | 0.53 | 0.18 | 95 | 1009.6 |
| 20260506002019 | 8 | 32 | 0.0 | 12.9 | 0.05 | 0.53 | 0.18 | 95 | 1009.7 |
| 20260506001531 | 8 | 347 | 1.6 | 11.3 | 0.08 | 0.53 | 0.18 | 95 | 1009.7 |
| 20260506001017 | 8 | 0 | 0.0 | 9.7 | 0.08 | 0.53 | 0.18 | 95 | 1009.7 |
| 20260506000517 | 8 | 0 | 0.0 | 16.1 | 0.05 | 0.51 | 0.15 | 95 | 1009.8 |
| 20260506000033 | 8 | 0 | 1.6 | 16.1 | 0.05 | 0.51 | 0.15 | 95 | 1009.8 |
| 20260505235517 | 8 | 0 | 0.0 | 9.7 | 0.08 | 0.51 | 0.15 | 95 | 1009.8 |
| 20260505235016 | 8 | 353 | 0.0 | 12.9 | 0.08 | 0.51 | 0.15 | 95 | 1009.8 |
| 20260505234533 | 8 | 341 | 0.0 | 12.9 | 0.08 | 0.51 | 0.15 | 95 | 1009.9 |
| 20260505234016 | 8 | 321 | 3.2 | 11.3 | 0.05 | 0.48 | 0.13 | 95 | 1009.9 |
| 20260505233518 | 8 | 0 | 1.6 | 16.1 | 0.08 | 0.48 | 0.13 | 95 | 1010.0 |
| 20260505233029 | 8 | 14 | 0.0 | 16.1 | 0.08 | 0.48 | 0.13 | 95 | 1009.9 |
| 20260505232516 | 8 | 60 | 4.8 | 16.1 | 0.08 | 0.48 | 0.13 | 95 | 1010.0 |
| 20260505232017 | 9 | 61 | 1.6 | 17.7 | 0.08 | 0.48 | 0.13 | 95 | 1009.9 |
| 20260505231532 | 9 | 40 | 3.2 | 17.7 | 0.08 | 0.46 | 0.10 | 95 | 1009.9 |
| 20260505231016 | 9 | 33 | 4.8 | 17.7 | 0.08 | 0.46 | 0.10 | 95 | 1009.9 |
| 20260505230519 | 9 | 60 | 0.0 | 8.0 | 0.08 | 0.46 | 0.10 | 95 | 1010.0 |
| 20260505230044 | 9 | 59 | 0.0 | 8.0 | 0.10 | 0.46 | 0.10 | 95 | 1010.1 |
| 20260505225515 | 9 | 74 | 1.6 | 11.3 | 0.08 | 0.43 | 0.08 | 95 | 1010.1 |
| 20260505225020 | 9 | 64 | 1.6 | 14.5 | 0.08 | 0.43 | 0.08 | 95 | 1010.2 |
| 20260505224536 | 9 | 33 | 0.0 | 14.5 | 0.10 | 0.43 | 0.08 | 95 | 1010.1 |
| 20260505224015 | 9 | 0 | 0.0 | 11.3 | 0.10 | 0.43 | 0.08 | 95 | 1010.2 |
| 20260505223514 | 9 | 0 | 0.0 | 11.3 | 0.08 | 0.41 | 0.05 | 95 | 1010.1 |
| 20260505223035 | 9 | 66 | 3.2 | 12.9 | 0.08 | 0.41 | 0.05 | 95 | 1010.1 |
| 20260505222519 | 9 | 73 | 1.6 | 12.9 | 0.10 | 0.41 | 0.05 | 95 | 1010.1 |
| 20260505222015 | 9 | 0 | 1.6 | 12.9 | 0.10 | 0.41 | 0.05 | 95 | 1010.2 |
| 20260505221530 | 9 | 0 | 1.6 | 14.5 | 0.08 | 0.38 | 0.03 | 95 | 1010.2 |
| 20260505221016 | 9 | 0 | 0.0 | 14.5 | 0.10 | 0.38 | 0.03 | 95 | 1010.2 |
| 20260505220514 | 9 | 0 | 3.2 | 9.7 | 0.10 | 0.38 | 0.03 | 95 | 1010.2 |
| 20260505220040 | 9 | 66 | 0.0 | 9.7 | 0.10 | 0.36 | 0.00 | 95 | 1010.3 |
| 20260505215516 | 9 | 0 | 1.6 | 11.3 | 0.10 | 0.36 | 0.36 | 95 | 1010.3 |
| 20260505215017 | 9 | 0 | 1.6 | 12.9 | 0.13 | 0.36 | 0.36 | 95 | 1010.2 |
| 20260505214534 | 9 | 0 | 3.2 | 12.9 | 0.10 | 0.33 | 0.33 | 95 | 1010.3 |
| 20260505214016 | 9 | 2 | 1.6 | 8.0 | 0.10 | 0.33 | 0.33 | 95 | 1010.3 |
| 20260505213520 | 9 | 0 | 0.0 | 8.0 | 0.13 | 0.33 | 0.33 | 95 | 1010.4 |
| 20260505213036 | 9 | 0 | 0.0 | 12.9 | 0.13 | 0.33 | 0.33 | 95 | 1010.4 |
| 20260505212516 | 9 | 0 | 0.0 | 12.9 | 0.13 | 0.30 | 0.30 | 95 | 1010.4 |
| 20260505212016 | 9 | 35 | 1.6 | 11.3 | 0.13 | 0.30 | 0.30 | 95 | 1010.4 |
| 20260505211534 | 9 | 12 | 0.0 | 6.4 | 0.13 | 0.30 | 0.30 | 95 | 1010.4 |
| 20260505211017 | 9 | 0 | 0.0 | 11.3 | 0.13 | 0.28 | 0.28 | 94 | 1010.4 |
| 20260505210518 | 9 | 0 | 1.6 | 11.3 | 0.13 | 0.28 | 0.28 | 94 | 1010.4 |
| 20260505210029 | 9 | 69 | 0.0 | 9.7 | 0.10 | 0.25 | 0.25 | 94 | 1010.5 |
| 20260505205515 | 9 | 0 | 0.0 | 11.3 | 0.10 | 0.25 | 0.25 | 94 | 1010.6 |
| 20260505205015 | 9 | 22 | 0.0 | 12.9 | 0.10 | 0.23 | 0.23 | 94 | 1010.4 |
| 20260505204533 | 9 | 49 | 0.0 | 12.9 | 0.10 | 0.23 | 0.23 | 94 | 1010.6 |
| 20260505204017 | 9 | 68 | 0.0 | 11.3 | 0.08 | 0.20 | 0.20 | 94 | 1010.5 |
| 20260505203514 | 9 | 62 | 1.6 | 6.4 | 0.10 | 0.20 | 0.20 | 95 | 1010.6 |
| 20260505203034 | 9 | 0 | 0.0 | 6.4 | 0.10 | 0.20 | 0.20 | 95 | 1010.6 |
| 20260505202516 | 9 | 32 | 0.0 | 8.0 | 0.10 | 0.18 | 0.18 | 95 | 1010.5 |
| 20260505202015 | 9 | 360 | 0.0 | 8.0 | 0.10 | 0.18 | 0.18 | 95 | 1010.5 |
| 20260505201534 | 9 | 58 | 0.0 | 11.3 | 0.13 | 0.18 | 0.18 | 95 | 1010.5 |
| 20260505201016 | 9 | 0 | 0.0 | 11.3 | 0.10 | 0.15 | 0.15 | 94 | 1010.4 |
| 20260505200516 | 9 | 0 | 1.6 | 11.3 | 0.13 | 0.15 | 0.15 | 95 | 1010.4 |
| 20260505200036 | 9 | 47 | 1.6 | 9.7 | 0.13 | 0.15 | 0.15 | 94 | 1010.4 |
| 20260505195519 | 9 | 0 | 0.0 | 8.0 | 0.13 | 0.15 | 0.15 | 94 | 1010.3 |
| 20260505195014 | 9 | 57 | 0.0 | 11.3 | 0.10 | 0.13 | 0.13 | 94 | 1010.3 |